Madison, SD

10:50 AM CDT on October 17, 2019 (GMT -0500)
Madison Municipal

Weather History for KMDS - September, 2019

Change the Weather History Date:

Friday, September 20, 2019

  Actual Average Record
Temperature  
Mean Temperature 75 °F -  
Max Temperature 84 °F 69 °F 86 °F (2010)
Min Temperature 66 °F 45 °F 41 °F (2012)
Cooling Degree Days 10    
Growing Degree Days 25 (Base 50)    
Moisture  
Dew Point 70 °F    
Average Humidity 87    
Maximum Humidity 100    
Minimum Humidity 55    
Precipitation  
Precipitation 0.00 in - - ()
Sea Level Pressure  
Sea Level Pressure 29.90 in    
Wind  
Wind Speed 14 mph ()    
Max Wind Speed 28 mph    
Max Gust Speed 36 mph    
Visibility 10.0 miles    
Events      
Averages and records for this station are not official NWS values.
T = Trace of Precipitation, MM = Missing Value Source: Averaged Metar Reports

Daily Weather History Graph

Daily Weather History Graph

Search for Another Location

Airport or City:

Astronomy

Sep. 20, 2019 Rise Set
Actual Time 7:13 AM CDT 7:29 PM CDT
Civil Twilight 6:44 AM CDT 7:58 PM CDT
Nautical Twilight 6:10 AM CDT 8:32 PM CDT
Astronomical Twilight 5:35 AM CDT 9:07 PM CDT
Moon 11:08 PM CDT (9/20) 1:31 PM CDT (9/20)
Length of Visible Light 13h 14m
Length of Day
12h 16m
Waning Gibbous, 65% of the Moon is Illuminated
Sep 20
Waning Gibbous
Sep 21
Last Quarter
Sep 28
New
Oct 5
First Quarter
Oct 13
Full

Hourly Weather History & Observations

Time (CDT) Temp. Heat Index Dew Point Humidity Pressure Visibility Wind Dir Wind Speed Gust Speed Precip Events Conditions
12:00 AM 68.0 °F - 68.0 °F 100% 29.97 in 10.0 mi SE 11.5 mph - N/A   Clear
12:15 AM 68.0 °F - 68.0 °F 100% 29.97 in 10.0 mi SE 12.7 mph - N/A   Clear
12:35 AM 68.0 °F - 68.0 °F 100% 29.97 in 10.0 mi SE 12.7 mph - N/A   Clear
12:40 AM 68.0 °F - 68.0 °F 100% 29.97 in 10.0 mi SE 12.7 mph 20.7 mph N/A   Clear
12:55 AM 68.0 °F - 68.0 °F 100% 29.97 in 10.0 mi SSE 13.8 mph - N/A   Clear
1:15 AM 68.0 °F - 68.0 °F 100% 29.97 in 10.0 mi SSE 11.5 mph - N/A   Clear
1:20 AM 68.0 °F - 68.0 °F 100% 29.97 in 10.0 mi SE 12.7 mph - N/A   Clear
1:35 AM 68.0 °F - 68.0 °F 100% 29.97 in 10.0 mi SSE 10.4 mph - N/A   Clear
1:40 AM 68.0 °F - 68.0 °F 100% 29.97 in 10.0 mi SSE 11.5 mph - N/A   Clear
1:55 AM 68.0 °F - 68.0 °F 100% 29.97 in 10.0 mi SSE 11.5 mph - N/A   Clear
2:15 AM 68.0 °F - 68.0 °F 100% 29.97 in 10.0 mi SSE 11.5 mph - N/A   Clear
2:35 AM 68.0 °F - 68.0 °F 100% 29.97 in 10.0 mi SE 10.4 mph - N/A   Clear
2:40 AM 68.0 °F - 68.0 °F 100% 29.97 in 10.0 mi SE 9.2 mph - N/A   Clear
2:55 AM 68.0 °F - 68.0 °F 100% 29.96 in 10.0 mi SE 10.4 mph - N/A   Clear
3:00 AM 68.0 °F - 68.0 °F 100% 29.96 in 10.0 mi SE 10.4 mph - N/A   Clear
3:15 AM 68.0 °F - 68.0 °F 100% 29.96 in 10.0 mi SE 10.4 mph - N/A   Clear
3:35 AM 68.0 °F - 68.0 °F 100% 29.96 in 10.0 mi SSE 10.4 mph 16.1 mph N/A   Clear
3:55 AM 68.0 °F - 68.0 °F 100% 29.96 in 10.0 mi SSE 11.5 mph - N/A   Clear
4:00 AM 68.0 °F - 68.0 °F 100% 29.95 in 10.0 mi SSE 11.5 mph - N/A   Clear
4:15 AM 68.0 °F - 68.0 °F 100% 29.95 in 10.0 mi SSE 12.7 mph - N/A   Clear
4:20 AM 68.0 °F - 68.0 °F 100% 29.95 in 10.0 mi SSE 11.5 mph - N/A   Clear
4:35 AM 68.0 °F - 68.0 °F 100% 29.95 in 10.0 mi SSE 11.5 mph - N/A   Clear
4:40 AM 68.0 °F - 68.0 °F 100% 29.95 in 10.0 mi SSE 11.5 mph - N/A   Clear
4:55 AM 68.0 °F - 68.0 °F 100% 29.95 in 10.0 mi SSE 11.5 mph - N/A   Clear
5:00 AM 68.0 °F - 68.0 °F 100% 29.95 in 10.0 mi SSE 11.5 mph - N/A   Clear
5:15 AM 68.0 °F - 68.0 °F 100% 29.95 in 10.0 mi SSE 11.5 mph - N/A   Clear
5:35 AM 66.2 °F - 66.2 °F 100% 29.94 in 10.0 mi SSE 12.7 mph - N/A   Clear
5:55 AM 68.0 °F - 68.0 °F 100% 29.94 in 10.0 mi SSE 11.5 mph - N/A   Clear
6:00 AM 68.0 °F - 68.0 °F 100% 29.94 in 10.0 mi SSE 11.5 mph 17.3 mph N/A   Clear
6:15 AM 68.0 °F - 68.0 °F 100% 29.94 in 10.0 mi SSE 11.5 mph - N/A   Clear
6:20 AM 68.0 °F - 68.0 °F 100% 29.94 in 10.0 mi SSE 10.4 mph - N/A   Clear
6:35 AM 68.0 °F - 68.0 °F 100% 29.95 in 10.0 mi SSE 10.4 mph - N/A   Clear
6:40 AM 68.0 °F - 68.0 °F 100% 29.95 in 10.0 mi SSE 10.4 mph - N/A   Clear
6:55 AM 68.0 °F - 68.0 °F 100% 29.95 in 10.0 mi SE 12.7 mph - N/A   Clear
7:15 AM 68.0 °F - 68.0 °F 100% 29.95 in 10.0 mi SSE 11.5 mph - N/A   Clear
7:20 AM 68.0 °F - 68.0 °F 100% 29.95 in 10.0 mi SSE 10.4 mph - N/A   Clear
7:35 AM 68.0 °F - 68.0 °F 100% 29.95 in 10.0 mi SSE 12.7 mph - N/A   Clear
7:40 AM 68.0 °F - 68.0 °F 100% 29.95 in 10.0 mi SSE 11.5 mph - N/A   Clear
7:55 AM 68.0 °F - 68.0 °F 100% 29.95 in 10.0 mi SSE 10.4 mph - N/A   Clear
8:00 AM 68.0 °F - 68.0 °F 100% 29.95 in 10.0 mi SSE 10.4 mph - N/A   Clear
8:15 AM 68.0 °F - 68.0 °F 100% 29.96 in 10.0 mi SSE 10.4 mph - N/A   Clear
8:20 AM 68.0 °F - 68.0 °F 100% 29.96 in 10.0 mi SSE 12.7 mph - N/A   Clear
8:35 AM 69.8 °F - 69.8 °F 100% 29.96 in 10.0 mi SSE 11.5 mph 17.3 mph N/A   Clear
8:55 AM 69.8 °F - 69.8 °F 100% 29.97 in 10.0 mi SSE 10.4 mph - N/A   Clear
9:15 AM 71.6 °F - 71.6 °F 100% 29.97 in 10.0 mi South 11.5 mph - N/A   Clear
9:20 AM 71.6 °F - 71.6 °F 100% 29.97 in 10.0 mi South 11.5 mph - N/A   Clear
9:35 AM 71.6 °F - 71.6 °F 100% 29.97 in 10.0 mi South 11.5 mph - N/A   Clear
9:40 AM 73.4 °F - 73.4 °F 100% 29.97 in 10.0 mi South 12.7 mph - N/A   Clear
9:55 AM 73.4 °F - 73.4 °F 100% 29.97 in 10.0 mi South 15.0 mph 21.9 mph N/A   Clear
10:15 AM 75.2 °F - 75.2 °F 100% 29.96 in 10.0 mi South 18.4 mph 21.9 mph N/A   Clear
10:20 AM 75.2 °F - 75.2 °F 100% 29.96 in 10.0 mi South 17.3 mph 23.0 mph N/A   Clear
10:35 AM 75.2 °F - 75.2 °F 100% 29.96 in 10.0 mi South 15.0 mph 20.7 mph N/A   Clear
10:55 AM 77.0 °F - 77.0 °F 100% 29.95 in 10.0 mi South 15.0 mph - N/A   Clear
11:15 AM 77.0 °F - 75.2 °F 94% 29.95 in 10.0 mi South 17.3 mph - N/A   Clear
11:20 AM 77.0 °F - 75.2 °F 94% 29.95 in 10.0 mi South 13.8 mph - N/A   Clear
11:35 AM 78.8 °F - 75.2 °F 89% 29.94 in 10.0 mi South 15.0 mph 23.0 mph N/A   Clear
11:55 AM 80.6 °F 86.2 °F 75.2 °F 84% 29.93 in 10.0 mi South 18.4 mph 25.3 mph N/A   Clear
12:15 PM 80.6 °F 85.4 °F 73.4 °F 79% 29.93 in 10.0 mi South 18.4 mph 25.3 mph N/A   Clear
12:20 PM 80.6 °F 86.2 °F 75.2 °F 84% 29.92 in 10.0 mi SSE 17.3 mph 25.3 mph N/A   Partly Cloudy
12:35 PM 80.6 °F 85.4 °F 73.4 °F 79% 29.92 in 10.0 mi South 19.6 mph 27.6 mph N/A   Partly Cloudy
12:40 PM 80.6 °F 85.4 °F 73.4 °F 79% 29.91 in 10.0 mi South 19.6 mph 27.6 mph N/A   Partly Cloudy
12:55 PM 82.4 °F 88.2 °F 73.4 °F 74% 29.91 in 10.0 mi South 24.2 mph 29.9 mph N/A   Scattered Clouds
1:15 PM 82.4 °F 88.2 °F 73.4 °F 74% 29.90 in 10.0 mi South 21.9 mph 26.5 mph N/A   Mostly Cloudy
1:35 PM 84.2 °F 89.6 °F 71.6 °F 66% 29.89 in 10.0 mi South 20.7 mph 28.8 mph N/A   Partly Cloudy
1:40 PM 84.2 °F 89.6 °F 71.6 °F 66% 29.88 in 10.0 mi South 24.2 mph 31.1 mph N/A   Partly Cloudy
1:55 PM 82.4 °F 85.4 °F 68.0 °F 62% 29.88 in 10.0 mi South 26.5 mph 33.4 mph N/A   Clear
2:00 PM 84.2 °F 88.4 °F 69.8 °F 62% 29.88 in 10.0 mi South 25.3 mph 33.4 mph N/A   Clear
2:15 PM 84.2 °F 87.3 °F 68.0 °F 58% 29.87 in 10.0 mi South 27.6 mph 32.2 mph N/A   Clear
2:20 PM 84.2 °F 87.3 °F 68.0 °F 58% 29.87 in 10.0 mi South 26.5 mph 33.4 mph N/A   Clear
2:40 PM 84.2 °F 88.4 °F 69.8 °F 62% 29.87 in 10.0 mi South 24.2 mph 33.4 mph N/A   Clear
2:55 PM 84.2 °F 87.3 °F 68.0 °F 58% 29.86 in 10.0 mi South 23.0 mph 33.4 mph N/A   Clear
3:15 PM 84.2 °F 87.3 °F 68.0 °F 58% 29.85 in 10.0 mi South 24.2 mph 35.7 mph N/A   Clear
3:20 PM 84.2 °F 87.3 °F 68.0 °F 58% 29.85 in 10.0 mi South 24.2 mph 35.7 mph N/A   Clear
3:35 PM 84.2 °F 87.3 °F 68.0 °F 58% 29.85 in 10.0 mi South 27.6 mph 34.5 mph N/A   Clear
3:40 PM 84.2 °F 87.3 °F 68.0 °F 58% 29.85 in 10.0 mi South 24.2 mph 34.5 mph N/A   Clear
3:55 PM 84.2 °F 86.6 °F 66.2 °F 55% 29.85 in 10.0 mi South 23.0 mph 33.4 mph N/A   Clear
4:00 PM 84.2 °F 86.6 °F 66.2 °F 55% 29.86 in 10.0 mi South 21.9 mph 32.2 mph N/A   Clear
4:15 PM 84.2 °F 87.3 °F 68.0 °F 58% 29.85 in 10.0 mi South 25.3 mph 31.1 mph N/A   Clear
4:35 PM 84.2 °F 86.6 °F 66.2 °F 55% 29.85 in 10.0 mi South 23.0 mph 29.9 mph N/A   Clear
4:55 PM 84.2 °F 86.6 °F 66.2 °F 55% 29.85 in 10.0 mi South 25.3 mph 33.4 mph N/A   Clear
5:15 PM 82.4 °F 84.6 °F 66.2 °F 58% 29.85 in 10.0 mi South 24.2 mph 33.4 mph N/A   Clear
5:35 PM 82.4 °F 84.6 °F 66.2 °F 58% 29.85 in 10.0 mi South 21.9 mph 31.1 mph N/A   Clear
5:40 PM 82.4 °F 85.4 °F 68.0 °F 62% 29.85 in 10.0 mi South 18.4 mph 31.1 mph N/A   Clear
5:55 PM 82.4 °F 85.4 °F 68.0 °F 62% 29.84 in 10.0 mi South 19.6 mph 28.8 mph N/A   Clear
6:15 PM 80.6 °F 83.9 °F 69.8 °F 70% 29.84 in 10.0 mi South 16.1 mph 23.0 mph N/A   Clear
6:20 PM 80.6 °F 83.9 °F 69.8 °F 70% 29.84 in 10.0 mi South 19.6 mph 26.5 mph N/A   Clear
6:35 PM 80.6 °F 83.2 °F 68.0 °F 65% 29.83 in 10.0 mi South 18.4 mph 25.3 mph N/A   Clear
6:55 PM 78.8 °F - 68.0 °F 69% 29.83 in 10.0 mi South 18.4 mph 26.5 mph N/A   Clear
7:15 PM 77.0 °F - 69.8 °F 78% 29.83 in 10.0 mi SSE 15.0 mph 26.5 mph N/A   Clear
7:35 PM 77.0 °F - 69.8 °F 78% 29.82 in 10.0 mi South 18.4 mph 21.9 mph N/A   Clear
7:40 PM 77.0 °F - 69.8 °F 78% 29.82 in 10.0 mi South 16.1 mph 21.9 mph N/A   Clear
7:55 PM 75.2 °F - 69.8 °F 83% 29.82 in 10.0 mi SSE 16.1 mph 24.2 mph N/A   Clear
8:15 PM 75.2 °F - 68.0 °F 78% 29.83 in 10.0 mi SSE 15.0 mph - N/A   Clear
8:20 PM 75.2 °F - 68.0 °F 78% 29.83 in 10.0 mi SSE 12.7 mph - N/A   Clear
8:35 PM 75.2 °F - 68.0 °F 78% 29.82 in 10.0 mi SSE 16.1 mph 21.9 mph N/A   Clear
8:40 PM 75.2 °F - 68.0 °F 78% 29.82 in 10.0 mi SSE 13.8 mph 21.9 mph N/A   Clear
8:55 PM 73.4 °F - 69.8 °F 88% 29.82 in 10.0 mi SSE 12.7 mph - N/A   Clear
9:00 PM 73.4 °F - 71.6 °F 94% 29.82 in 10.0 mi SSE 11.5 mph - N/A   Clear
9:15 PM 73.4 °F - 71.6 °F 94% 29.82 in 10.0 mi South 15.0 mph 19.6 mph N/A   Clear
9:35 PM 73.4 °F - 69.8 °F 88% 29.82 in 10.0 mi South 19.6 mph 26.5 mph N/A   Clear
9:40 PM 73.4 °F - 69.8 °F 88% 29.82 in 10.0 mi South 21.9 mph 28.8 mph N/A   Clear
9:55 PM 73.4 °F - 69.8 °F 88% 29.82 in 10.0 mi South 19.6 mph 24.2 mph N/A   Clear
10:15 PM 73.4 °F - 69.8 °F 88% 29.83 in 10.0 mi South 18.4 mph 25.3 mph N/A   Clear
10:35 PM 73.4 °F - 71.6 °F 94% 29.83 in 10.0 mi South 16.1 mph 27.6 mph N/A   Clear
10:40 PM 73.4 °F - 71.6 °F 94% 29.83 in 10.0 mi South 17.3 mph 27.6 mph N/A   Clear
10:55 PM 71.6 °F - 71.6 °F 100% 29.82 in 10.0 mi South 19.6 mph 26.5 mph N/A   Clear
11:15 PM 71.6 °F - 71.6 °F 100% 29.82 in 10.0 mi South 18.4 mph 26.5 mph N/A   Clear
11:20 PM 71.6 °F - 71.6 °F 100% 29.82 in 10.0 mi South 20.7 mph 26.5 mph N/A   Clear
11:35 PM 71.6 °F - 71.6 °F 100% 29.82 in 10.0 mi South 21.9 mph 29.9 mph N/A   Mostly Cloudy
11:55 PM 71.6 °F - 71.6 °F 100% 29.82 in 10.0 mi South 20.7 mph 24.2 mph N/A   Overcast